RH
84 85 86 88 90 88 88 89 91 90 87 86 86 86 84 80 74 19 18 29 31 65 57 16 14 12 11 12 10 9 13 11 9 8 8 7 10 11 12 18 27 28 27 35 48
86 86 85 86 88 87 87 89 89 88 87 87 88 88 85 82 36 18 44 64 58 62 18 17 17 14 13 11 11 12 12 10 7 7 9 8 9 9 10 14 14 24 27 38 52
89 88 86 89 90 90 88 86 85 85 87 87 88 87 82 58 28 18 60 61 63 51 18 18 17 16 17 12 11 11 14 10 10 9 9 9 9 8 9 10 12 14 20 39 61
92 91 88 85 83 82 84 84 84 85 86 86 86 87 80 34 25 20 65 62 64 26 18 19 18 20 20 16 11 14 12 11 10 10 10 11 10 10 9 10 9 12 15 40 60
91 83 78 77 78 80 84 84 86 86 86 85 85 87 42 27 20 17 67 53 23 19 20 19 21 21 20 16 13 15 13 11 10 10 11 11 12 11 10 8 8 10 19 29 50
80 76 78 78 79 81 86 87 88 88 88 86 85 90 32 37 16 14 18 20 18 18 18 19 20 18 21 20 18 15 15 13 11 11 11 12 12 12 11 9 9 10 19 23 35
78 76 77 78 78 79 81 83 85 87 86 86 84 37 29 31 17 16 17 18 17 19 21 17 16 18 20 21 16 17 20 16 13 11 11 10 12 12 10 10 10 10 15 21 28
75 74 75 76 77 79 80 82 84 86 88 88 86 30 38 19 15 16 16 18 17 18 21 21 20 21 22 20 20 21 22 25 15 12 10 11 16 10 8 10 11 10 12 16 23
72 70 73 76 77 79 81 83 85 84 84 83 55 37 36 28 19 18 23 27 26 24 26 26 28 29 24 27 26 20 25 20 17 12 11 13 16 12 12 13 13 12 12 12 19
72 69 73 78 78 80 82 82 75 87 65 39 30 40 30 24 23 23 22 27 30 26 31 34 32 33 30 28 33 25 20 18 19 16 13 14 17 13 12 13 15 15 14 13 15
69 68 71 76 78 80 63 42 48 53 42 38 34 34 27 22 22 24 24 28 26 32 36 27 35 37 27 25 23 23 22 21 17 15 16 17 16 16 15 14 15 14 14 15 14
69 72 74 78 79 82 59 42 50 57 50 31 31 32 28 26 34 25 20 29 30 33 26 29 36 27 24 22 23 23 26 26 22 18 21 21 20 16 15 15 15 15 14 14 15
73 73 74 80 84 66 43 47 40 43 55 31 27 28 26 26 30 26 20 23 28 32 28 31 26 22 26 28 28 27 29 28 28 22 21 22 24 21 17 15 15 15 14 14 14
73 72 78 81 65 38 46 40 34 56 52 31 30 29 27 24 30 19 19 23 26 30 26 27 22 24 26 31 28 33 23 25 27 29 33 21 30 21 16 17 17 17 16 16 14
71 71 75 74 43 34 47 36 38 63 66 26 26 20 19 25 24 22 18 22 29 27 26 29 26 26 30 26 26 32 25 27 29 36 39 32 34 25 20 21 18 17 21 22 22
70 71 72 47 40 44 36 42 54 59 58 28 21 26 22 23 22 20 22 22 23 28 27 26 19 22 28 34 36 32 36 36 36 45 73 42 38 31 22 21 22 25 25 24 25
70 69 53 30 37 40 45 47 56 66 25 25 26 24 24 26 25 26 29 35 35 45 32 32 28 22 20 32 34 42 57 90 90 76 69 30 37 37 25 23 24 27 28 27 25
68 67 63 31 35 44 48 49 91 35 28 26 27 25 27 26 26 27 30 46 43 39 39 44 37 43 37 38 44 43 68 98 98 61 52 49 42 37 24 22 22 23 24 26 27
62 46 45 55 55 48 47 74 53 32 25 27 26 30 25 28 32 31 34 57 53 40 50 48 44 46 50 46 46 39 45 48 92 93 98 59 53 38 25 22 20 20 22 23 23
38 38 40 60 57 52 52 69 34 23 28 30 33 21 25 22 31 29 28 53 58 40 38 59 58 31 32 40 64 56 55 80 77 95 70 40 34 38 49 50 28 26 24 22 21
49 44 58 60 57 44 89 61 30 22 27 34 30 26 23 25 23 29 28 36 40 45 37 39 54 40 35 36 43 46 67 80 93 98 93 65 42 73 79 61 47 37 28 23 19
48 91 52 61 70 57 72 35 51 25 26 32 29 31 28 24 26 27 28 24 32 30 33 30 43 49 34 24 32 32 53 94 93 98 92 91 59 65 52 44 45 36 25 21 20
66 75 49 63 100 84 40 39 35 31 26 27 29 26 26 28 35 28 27 21 30 32 30 36 55 68 30 20 32 49 85 90 99 99 85 92 54 64 59 39 40 32 25 21 20
54 99 78 74 79 62 48 41 36 28 32 27 29 28 30 34 28 32 28 23 32 31 47 44 44 48 52 29 24 34 28 35 66 92 56 70 50 34 30 28 26 26 30 24 18
87 80 50 87 80 71 58 45 43 41 35 34 37 34 37 43 35 34 28 27 32 46 40 40 68 38 29 24 22 23 24 27 35 43 72 42 32 26 23 20 18 16 17 19 16
94 77 47 37 46 52 68 53 54 56 55 48 60 58 58 59 54 56 41 47 39 31 40 42 78 61 65 36 29 31 23 22 21 20 20 22 23 14 12 12 12 14 16 15 16
41 39 44 52 39 37 39 38 42 50 48 45 52 54 61 57 46 44 46 46 46 50 53 56 72 78 74 35 36 66 46 24 22 20 21 26 19 12 12 12 14 16 15 12 18
Wind_Speed
5 3 2 1 1 3 5 7 9 11 12 13 14 16 20 20 24 18 15 4 6 6 6 14 11 11 11 14 10 14 14 15 19 18 11 2 8 8 6 10 7 9 12 7 23
6 6 4 4 3 4 6 7 9 11 12 14 15 16 18 19 21 21 6 7 6 7 11 9 12 11 12 13 10 12 15 20 14 14 15 13 10 12 10 12 13 11 5 6 19
8 6 5 6 6 6 7 7 9 10 11 12 14 18 18 18 18 6 4 6 2 9 12 10 12 15 17 17 13 17 18 19 18 19 14 17 17 15 17 15 17 15 17 15 18
8 5 4 3 5 6 7 8 10 11 12 12 14 17 22 10 10 10 7 5 6 10 13 14 14 17 18 18 17 15 18 20 20 16 19 18 17 21 20 17 17 4 11 20 20
4 2 3 5 6 8 9 9 9 10 12 12 13 15 13 11 18 2 9 9 11 11 13 14 14 15 20 18 15 16 20 22 20 19 18 19 21 22 22 22 19 10 8 17 20
5 3 2 3 5 7 9 10 11 12 12 11 12 15 14 20 2 5 3 7 11 14 16 14 13 14 13 20 21 21 23 24 21 22 21 22 23 22 25 23 23 19 12 15 20
3 3 4 5 7 8 10 11 11 12 13 12 9 9 17 21 16 17 16 18 19 17 18 17 16 17 14 19 18 19 23 24 23 23 24 24 27 27 25 24 22 19 16 16 17
5 4 5 6 8 10 11 12 12 15 13 9 8 10 14 13 13 15 15 17 18 17 18 18 18 21 21 20 26 25 23 24 23 23 24 14 20 19 18 21 24 22 19 18 18
4 1 3 6 8 10 12 14 13 8 3 4 8 11 15 3 11 7 5 6 4 7 7 7 11 18 18 21 21 22 24 26 25 21 15 19 22 16 6 10 14 16 18 19 16
4 2 4 7 9 11 14 11 4 6 8 8 8 7 15 12 4 10 10 5 9 9 8 11 10 13 16 18 20 21 21 24 21 16 23 14 19 16 19 12 15 18 18 19 17
4 2 4 7 11 12 11 6 8 10 12 13 7 16 7 6 8 13 6 5 12 15 17 17 15 19 22 23 25 24 27 27 23 16 21 22 23 16 20 22 20 20 18 19 19
3 5 8 10 12 15 9 3 3 3 11 16 21 20 21 17 15 20 13 15 14 20 20 20 25 24 23 24 25 25 27 26 24 21 23 23 26 23 23 21 21 21 22 20 20
4 6 9 12 14 9 2 5 2 5 9 11 12 10 6 7 13 15 4 15 22 23 20 24 23 14 22 24 26 26 26 25 25 22 23 22 29 24 27 30 27 24 22 22 19
3 3 7 11 2 1 5 3 5 3 8 9 9 7 9 4 7 7 5 7 11 18 20 21 22 27 25 25 20 27 20 22 22 20 17 17 22 22 16 7 7 13 16 16 19
2 4 7 7 2 6 7 5 5 4 8 6 8 7 5 7 6 8 2 7 13 13 12 16 13 12 19 24 24 31 18 22 19 19 18 25 16 18 19 23 21 8 10 13 15
2 4 7 5 3 5 4 6 5 7 9 5 2 4 8 8 5 5 6 7 7 11 13 19 19 21 11 11 17 19 19 20 18 11 12 26 18 26 18 11 7 12 11 11 12
3 5 7 3 2 2 5 6 7 8 4 8 4 3 4 3 6 7 8 2 6 7 13 7 8 9 12 16 16 13 13 5 8 11 16 17 16 23 9 14 14 12 13 13 13
4 7 2 3 5 3 5 10 10 7 14 6 2 6 11 2 8 8 13 8 1 11 8 8 11 8 15 8 6 14 6 5 8 13 15 11 9 6 14 13 14 14 13 11 11
3 2 2 4 6 4 8 13 8 9 11 6 9 12 15 9 7 5 6 3 4 6 6 7 7 4 5 8 10 6 18 12 8 9 9 9 10 6 7 10 12 12 10 11 11
2 3 3 5 3 6 9 17 14 11 3 6 14 6 12 11 7 10 7 7 5 1 5 3 8 5 6 2 3 6 11 4 4 7 20 15 19 11 10 15 10 14 14 13 11
2 4 5 3 4 6 10 9 13 16 6 8 13 17 15 13 11 12 5 8 13 8 3 3 5 4 7 6 3 4 2 1 3 2 6 6 4 16 17 11 16 17 17 16 14
1 2 3 3 6 5 9 11 5 11 8 13 14 16 18 16 16 15 14 12 5 6 9 4 6 12 17 9 10 9 5 5 4 3 2 5 3 8 5 12 13 18 18 17 16
2 1 2 5 5 7 10 7 8 11 12 11 11 9 13 17 19 17 16 12 5 7 6 1 5 7 9 12 8 5 5 5 5 5 10 5 6 8 14 17 14 20 20 18 17
3 2 2 1 5 7 10 10 12 5 11 13 14 11 15 16 15 16 13 6 4 10 6 7 13 15 16 17 19 16 17 14 11 6 12 13 24 22 22 21 17 12 15 17 15
2 4 2 5 6 8 6 3 8 9 8 5 7 15 15 16 16 18 18 18 13 15 13 12 18 19 24 24 23 24 21 19 22 19 18 23 25 25 21 23 23 18 14 14 16
4 3 3 3 1 8 5 5 5 3 3 3 8 5 8 10 11 16 15 12 12 7 11 14 16 16 17 18 18 21 22 22 23 25 26 26 26 26 22 19 17 17 18 17 18
1 1 4 4 5 5 6 7 5 3 3 3 1 5 5 7 7 9 9 12 13 13 14 14 8 6 15 17 18 12 17 22 23 23 23 23 23 23 20 20 18 16 16 19 21
Wind_Direction
191 186 199 206 14 348 331 333 335 329 329 330 330 330 321 322 309 291 268 41 36 4 314 267 245 261 259 255 249 264 271 260 261 266 270 234 249 222 301 292 198 188 270 48 148
205 199 213 239 250 296 313 328 332 326 325 329 329 324 321 329 304 284 79 64 24 327 285 312 300 309 285 251 240 238 261 263 289 313 308 294 245 269 243 238 250 213 190 147 162
218 232 254 289 307 321 323 326 320 319 322 325 329 320 315 320 291 91 124 83 285 292 288 292 282 281 282 275 262 251 255 275 304 311 283 275 273 269 263 250 255 237 202 167 177
225 231 246 294 319 313 310 319 316 320 321 323 326 319 315 292 288 87 123 158 229 275 274 275 274 281 281 277 276 258 267 279 274 275 280 265 270 267 268 262 273 271 324 157 188
180 224 288 309 314 315 321 322 315 309 311 316 315 314 316 263 254 204 156 192 252 252 265 268 270 275 271 272 281 271 271 268 270 273 272 272 268 269 270 270 271 253 232 190 198
169 217 290 326 328 332 326 321 313 306 301 305 310 309 273 273 325 323 294 262 270 283 274 259 258 279 298 280 274 281 284 282 278 277 269 266 263 257 255 258 260 257 221 223 210
130 75 14 353 334 325 311 302 300 293 292 293 289 284 276 257 302 302 290 282 287 276 268 263 278 268 268 272 266 275 271 275 266 263 260 255 251 251 255 255 249 238 229 227 220
87 60 16 346 335 319 307 300 297 294 289 268 251 257 267 289 310 285 273 266 258 256 253 267 269 267 260 270 269 269 264 270 268 262 259 265 266 264 260 232 237 246 232 223 216
105 36 347 326 323 312 309 299 288 268 238 196 219 228 263 104 242 278 274 270 309 244 229 252 248 243 239 247 257 255 258 264 273 282 250 238 255 256 293 271 266 259 242 232 216
118 47 350 329 321 315 310 288 263 198 208 217 261 250 238 265 21 309 280 275 265 255 220 226 232 233 217 239 243 252 250 246 251 260 280 258 267 257 260 224 241 247 249 249 221
105 29 327 321 309 307 306 201 213 199 215 256 307 253 291 257 287 284 301 273 281 256 250 244 238 241 237 237 247 266 275 278 283 280 283 282 271 261 260 268 248 254 246 248 240
61 356 327 321 312 302 275 295 41 336 286 258 255 257 270 279 277 275 273 266 257 253 251 244 246 245 259 261 264 266 264 263 271 275 277 279 276 275 261 254 253 252 254 242 247
59 357 341 329 313 281 55 94 349 292 257 253 235 251 240 241 252 263 270 251 245 260 259 253 255 255 239 248 263 259 261 274 275 283 279 285 275 266 261 252 243 249 248 255 248
81 1 339 318 253 174 164 2 335 312 270 165 187 176 177 219 245 234 221 252 232 253 255 257 265 261 264 252 260 269 263 262 270 269 268 264 280 273 272 283 238 249 256 259 250
74 353 328 312 8 201 65 325 305 229 276 108 145 99 174 226 344 163 211 210 248 258 242 254 264 248 252 260 260 266 269 274 277 286 295 264 263 269 258 253 244 269 22 20 6
58 342 314 213 238 39 323 290 244 228 244 145 170 184 224 194 212 307 225 218 267 259 246 258 274 289 275 305 299 302 290 276 269 268 257 254 253 269 261 281 130 75 62 45 27
354 330 305 294 75 0 293 231 239 236 130 159 188 211 275 218 205 260 217 169 328 277 243 295 256 267 257 255 280 302 278 259 222 225 246 261 242 252 75 86 99 94 68 47 35
328 292 146 2 324 304 228 223 234 277 256 109 267 242 246 201 209 252 255 184 106 302 279 289 232 28 21 4 281 267 292 253 271 272 279 352 244 248 109 116 99 89 77 62 41
266 206 201 51 317 266 222 218 210 234 269 258 250 252 255 193 260 234 234 93 303 328 273 300 233 52 21 18 344 330 228 293 286 256 267 235 235 208 144 115 91 78 67 48 44
244 249 114 336 300 246 232 233 239 258 286 265 261 274 270 225 203 228 240 144 190 290 338 119 279 234 121 135 57 357 2 322 243 260 255 255 260 256 126 22 35 40 16 4 2
246 239 61 324 245 215 226 233 264 254 254 262 268 267 269 274 278 266 278 154 188 174 279 266 228 246 283 258 246 176 273 279 276 346 315 286 156 55 75 28 360 351 343 336 343
231 187 55 224 207 208 227 249 352 275 231 254 271 281 281 283 282 267 266 267 133 236 264 307 280 280 279 282 243 295 298 163 237 134 255 275 289 125 93 27 342 327 321 328 331
68 60 141 249 206 222 228 256 264 270 259 261 252 264 281 273 270 268 273 272 198 272 290 225 232 281 269 245 151 253 163 160 188 200 242 253 268 178 290 318 319 315 313 320 319
136 164 244 120 315 267 227 244 240 213 274 272 276 276 281 265 262 268 274 264 217 251 41 316 281 269 267 284 304 272 264 237 203 236 273 266 286 286 295 302 304 294 294 301 298
351 264 44 173 194 219 270 294 247 234 217 245 264 243 254 263 266 263 264 261 207 216 236 231 258 266 267 268 265 268 276 278 271 258 253 277 278 285 283 292 300 295 292 295 306
147 191 204 150 224 206 169 222 268 210 274 287 281 343 310 285 278 276 302 301 279 287 277 251 256 272 280 288 283 277 269 267 267 269 274 282 284 282 283 285 288 304 298 311 308
259 67 300 108 200 235 219 239 234 302 208 297 278 290 274 304 311 323 306 292 281 284 282 271 271 258 266 281 280 279 260 266 272 275 273 273 284 293 294 289 290 289 295 305 293